[[{"header":{"parameterUnit":"m.s-1","parameterCategory":1,"la1":30.2991,"la2":30.254,"lo1":-89.0895,"lo2":-89.0444,"dy":0.0017,"dx":0.0017,"nx":28,"ny":28,"refTime":"2025-04-18T03:00:00:Z","depth":0,"parameterNumber":2,"parameterNumberName":"U-component_of_WINDS"},"data":[0,0,0,0,0,0,0,0,0,0,0,0,0,0,0,0,0,0,0,0,0,0,0,0,0,0,0,0,0,0,0,0,0,0,0,0,0,0,0,0,0,0,0,0,0,0,0,0,0,0,0,0,0,0,0,0,0,0,-5.2487,-5.2488,0,-5.2545,-5.2545,-5.2546,-5.2468,-5.2465,-5.2462,-5.246,-5.2514,-5.2518,-5.2522,0,0,0,0,0,0,0,0,0,0,0,0,0,-5.2308,-5.2311,-5.2487,-5.2488,-5.2489,-5.2544,-5.2545,-5.2546,-5.2468,-5.2465,-5.2462,-5.2458,-5.2513,-5.2518,-5.2523,0,0,0,0,0,0,0,0,0,0,0,0,0,-5.2377,-5.2313,-5.2487,-5.2457,-5.2455,-5.2544,-5.2545,-5.2546,-5.2469,-5.2465,-5.2461,-5.2457,-5.2511,-5.2517,-5.2523,-5.2644,0,0,-5.2542,-5.2544,0,0,0,0,0,0,0,0,-5.2374,-5.2384,-5.2461,-5.2459,-5.2457,-5.2495,-5.2502,-5.2579,-5.247,-5.2463,-5.246,-5.2455,-5.2511,-5.2517,-5.2537,-5.2647,-5.2649,-5.2542,-5.2546,-5.2549,-5.255,0,0,0,0,0,0,0,-5.2369,-5.2381,-5.251,-5.2462,-5.246,-5.2439,-5.2445,-5.2516,-5.251,-5.2464,-5.2458,-5.2466,-5.2509,-5.2531,-5.2537,-5.265,-5.2542,-5.2548,-5.2551,-5.2554,-5.2861,-5.2866,0,0,0,0,0,0,-5.2368,-5.2378,-5.2508,-5.2511,-5.2404,-5.2446,-5.2452,-5.2487,-5.2509,-5.2508,-5.247,-5.2462,-5.2523,-5.253,-5.2539,-5.268,-5.2549,-5.2554,-5.2558,-5.2857,-5.2862,-5.2867,0,0,0,0,0,0,-5.2365,-5.238,-5.2506,-5.2443,-5.2458,-5.2454,-5.2493,-5.249,-5.2512,-5.2513,-5.2511,-5.2493,-5.252,-5.253,-5.2619,-5.2681,-5.2557,-5.2563,-5.2851,-5.2859,-5.2865,-5.2966,0,0,0,0,0,0,-5.236,-5.238,-5.2426,-5.2445,-5.2461,-5.2586,-5.2497,-5.2494,-5.2523,-5.2514,-5.2535,-5.2534,-5.2517,-5.261,-5.2625,-5.2687,-5.2567,-5.2846,-5.2855,-5.2863,-5.2957,-5.2975,-5.2991,0,0,0,0,0,-5.2354,-5.2451,-5.2429,-5.2445,-5.2519,-5.2589,-5.2598,-5.2578,-5.2528,-5.2574,-5.2576,-5.2534,-5.2673,-5.262,-5.2636,-5.2701,-5.2842,-5.2852,-5.2862,-5.2949,-5.2971,-5.299,0,0,0,0,0,0,-5.2438,-5.2453,-5.2428,-5.2535,-5.2562,-5.2576,-5.2633,-5.2602,-5.2642,-5.2632,-5.2603,-5.2609,-5.2703,-5.2711,-5.2652,-5.2819,-5.2749,-5.2763,-5.281,-5.2831,-5.2848,-5.2842,-5.2572,0,0,0,0,0,-5.247,-5.2526,-5.2536,-5.263,-5.2644,-5.2637,-5.2667,-5.2649,-5.2674,-5.2685,-5.2692,-5.2718,-5.2767,-5.28,-5.2846,-5.2959,-5.2961,-5.3012,-5.3029,-5.3043,-5.3054,-5.3113,-5.3135,-5.2901,-5.2901,-5.29,0,0,-5.2534,-5.255,-5.2587,-5.2647,-5.2665,-5.2723,-5.2647,-5.2711,-5.2754,-5.2694,-5.2777,-5.2785,-5.2811,-5.2913,-5.2957,-5.2922,-5.312,-5.3056,-5.3067,-5.3071,-5.3126,-5.3148,-5.3168,-5.2908,-5.2906,-5.2905,0,0,-5.2681,-5.27,-5.2779,-5.28,-5.2829,-5.2824,-5.2844,-5.2863,-5.2866,-5.295,-5.2906,-5.2956,-5.3042,-5.3063,-5.3085,-5.3242,-5.3205,-5.3258,-5.3346,-5.3404,-5.3423,-5.3439,-5.3493,-5.3513,-5.327,-5.327,-5.3271,0,-5.2757,-5.2844,-5.2823,-5.2892,-5.2919,-5.287,-5.2949,-5.297,-5.3013,-5.3032,-5.2993,-5.31,-5.3115,-5.322,-5.3258,-5.3278,-5.3298,-5.3254,-5.3422,-5.3438,-5.3453,-5.3504,-5.3525,-5.3277,-5.3276,-5.3275,-5.3275,0,-5.2935,-5.2997,-5.3057,-5.3101,-5.3135,-5.3209,-5.3198,-5.3236,-5.3216,-5.3215,-5.3301,-5.3317,-5.3365,-5.3389,-5.337,-5.3492,-5.3469,-5.3427,-5.3355,-5.3482,-5.3529,-5.3549,-5.3285,-5.3283,-5.3281,-5.328,0,0,-5.3133,-5.3167,-5.3189,-5.3209,-5.3239,-5.3285,-5.3357,-5.3405,-5.3437,-5.3469,-5.3527,-5.3602,-5.3564,-5.3589,-5.3571,-5.3623,-5.3745,-5.3574,-5.3574,-5.3603,-5.3878,-5.3907,-5.393,-5.3722,-5.3726,-5.3729,-5.3875,0,-5.3279,-5.3403,-5.3388,-5.3506,-5.3562,-5.3518,-5.358,-5.3605,-5.3606,-5.3653,-5.3654,-5.3707,-5.3653,-5.3668,-5.3718,-5.372,-5.3799,-5.3709,-5.3773,-5.3776,-5.3765,-5.3956,-5.3987,-5.4124,-5.3894,-5.3897,-5.3899,0,-5.3464,-5.3504,-5.3629,-5.3651,-5.3674,-5.373,-5.3773,-5.3819,-5.3846,-5.3844,-5.3873,-5.3847,-5.3918,-5.3848,-5.3944,-5.3883,-5.3909,-5.3914,-5.3919,-5.3921,-5.3843,-5.3961,-5.4167,-5.4187,-5.3929,-5.3926,-5.3924,0,-5.3593,-5.3679,-5.3764,-5.3782,-5.3811,-5.3851,-5.3865,-5.3889,-5.3919,-5.3957,-5.3976,-5.4021,-5.4045,-5.4081,-5.4067,-5.4018,-5.4166,-5.4095,-5.4164,-5.4164,-5.4194,-5.4191,-5.4405,-5.4216,-5.4216,-5.4215,-5.4215,0,-5.3755,-5.3832,-5.3822,-5.3875,-5.396,-5.3942,-5.4027,-5.4035,-5.4057,-5.4109,-5.4074,-5.4123,-5.4104,-5.4152,-5.4143,-5.4223,-5.4235,-5.4233,-5.4229,-5.4235,-5.4235,-5.4248,-5.4237,-5.4221,-5.4219,-5.4218,-5.4217,0,-5.3912,-5.3909,-5.3999,-5.402,-5.4027,-5.4089,-5.4106,-5.4154,-5.4155,-5.4221,-5.4236,-5.4235,-5.429,-5.4282,-5.4342,-5.4336,-5.4435,-5.4421,-5.4426,-5.4422,-5.449,-5.4483,-5.4717,-5.4746,-5.4541,-5.4543,-5.4545,0,-5.4014,-5.4073,-5.4101,-5.4134,-5.4151,-5.4205,-5.4236,-5.4221,-5.4255,-5.4292,-5.4336,-5.4388,-5.4429,-5.4519,-5.4523,-5.4569,-5.4554,-5.4633,-5.456,-5.4564,-5.4552,-5.4547,-5.4552,-5.4646,-5.4649,-5.465,-5.4652,0,-5.4195,-5.4191,-5.4238,-5.4285,-5.4324,-5.436,-5.4392,-5.4421,-5.4409,-5.4449,-5.4506,-5.4538,-5.4601,-5.4652,-5.4696,-5.4709,-5.4678,-5.4676,-5.4693,-5.4698,-5.4698,-5.4696,-5.4462,-5.4669,-5.4668,-5.4666,-5.4665,-5.4665,-5.4325,-5.4375,-5.4403,-5.4457,-5.448,-5.4512,-5.4559,-5.4566,-5.4613,-5.4664,-5.4653,-5.4716,-5.4742,-5.4798,-5.4816,-5.4865,-5.4835,-5.4862,-5.4868,-5.4874,-5.4881,-5.4693,-5.4873,-5.4873,-5.4872,-5.4872,-5.4871,0,-5.4502,-5.4519,-5.4569,-5.4616,-5.4658,-5.4629,-5.4663,-5.47,-5.4757,-5.4785,-5.4827,-5.4892,-5.4942,-5.4952,-5.5,-5.5037,-5.5024,-5.5049,-5.5045,-5.5048,-5.4906,-5.4884,-5.5059,-5.5059,-5.5059,-5.5059,-5.5059,-5.5059,-5.4599,-5.4681,-5.4681,-5.4775,-5.4791,-5.4854,-5.4876,-5.4905,-5.4927,-5.5001,-5.5044,-5.5051,-5.5071,-5.512,-5.5165,-5.5166,-5.5184,-5.5215,-5.5211,-5.5077,-5.5058,-5.504,-5.502,-5.522,-5.522,-5.5349,-5.535,-5.5351]},{"header":{"parameterUnit":"m.s-1","parameterCategory":1,"la1":30.2991,"la2":30.254,"lo1":-89.0895,"lo2":-89.0444,"dy":0.0017,"dx":0.0017,"nx":28,"ny":28,"refTime":"2025-04-18T03:00:00:Z","depth":0,"parameterNumber":3,"parameterNumberName":"V-component_of_WINDS"},"data":[0,0,0,0,0,0,0,0,0,0,0,0,0,0,0,0,0,0,0,0,0,0,0,0,0,0,0,0,0,0,0,0,0,0,0,0,0,0,0,0,0,0,0,0,0,0,0,0,0,0,0,0,0,0,0,0,0,0,2.5774,2.5774,0,2.581,2.581,2.581,2.5832,2.5832,2.5832,2.5833,2.5866,2.5867,2.5868,0,0,0,0,0,0,0,0,0,0,0,0,0,2.5722,2.5723,2.5774,2.5774,2.5775,2.5809,2.581,2.581,2.5832,2.5832,2.5833,2.5833,2.5866,2.5867,2.5868,0,0,0,0,0,0,0,0,0,0,0,0,0,2.575,2.5723,2.5774,2.579,2.5791,2.5809,2.581,2.5811,2.5832,2.5832,2.5833,2.5833,2.5866,2.5867,2.5868,2.5872,0,0,2.5872,2.5872,0,0,0,0,0,0,0,0,2.5748,2.5752,2.5787,2.5789,2.5791,2.5817,2.5804,2.5831,2.5832,2.5817,2.5833,2.5833,2.5849,2.5852,2.5858,2.5873,2.5875,2.5872,2.5872,2.5873,2.5873,0,0,0,0,0,0,0,2.5746,2.575,2.5788,2.5787,2.579,2.5795,2.5799,2.5809,2.5831,2.5818,2.582,2.5824,2.585,2.5857,2.5859,2.5875,2.5872,2.5873,2.5873,2.5874,2.5897,2.5897,0,0,0,0,0,0,2.5742,2.5749,2.5787,2.5789,2.577,2.5795,2.58,2.5808,2.5831,2.5835,2.5824,2.5825,2.5855,2.5858,2.586,2.5867,2.5873,2.5874,2.5875,2.5897,2.5897,2.5897,0,0,0,0,0,0,2.5741,2.5745,2.5785,2.5769,2.5775,2.5796,2.5805,2.5809,2.5815,2.5836,2.584,2.5826,2.5855,2.5859,2.5869,2.5869,2.5875,2.5876,2.5897,2.5897,2.5897,2.5881,0,0,0,0,0,0,2.574,2.5745,2.5747,2.5769,2.5775,2.5794,2.5805,2.5809,2.5818,2.5819,2.5839,2.5843,2.5856,2.5867,2.587,2.587,2.5876,2.5897,2.5897,2.5897,2.5881,2.588,2.5879,0,0,0,0,0,2.5738,2.574,2.5747,2.5751,2.5778,2.5794,2.5797,2.5813,2.5817,2.5819,2.5833,2.5842,2.5868,2.5868,2.5872,2.5872,2.5897,2.5897,2.5897,2.5882,2.588,2.5879,0,0,0,0,0,0,2.5715,2.5743,2.5751,2.576,2.5775,2.5797,2.58,2.581,2.5823,2.5824,2.5842,2.5846,2.5855,2.5865,2.5864,2.5878,2.5884,2.5884,2.5871,2.587,2.5869,2.5866,2.5877,0,0,0,0,0,2.5711,2.5722,2.5746,2.5752,2.5759,2.5778,2.5785,2.5797,2.5812,2.5817,2.5832,2.5845,2.5857,2.5864,2.5875,2.5883,2.5888,2.5885,2.5884,2.5883,2.5883,2.5889,2.5888,2.5896,2.5896,2.5896,0,0,2.5703,2.572,2.5725,2.5747,2.576,2.5771,2.5783,2.5793,2.5801,2.5819,2.583,2.5841,2.5858,2.5867,2.5872,2.5875,2.5882,2.5882,2.5881,2.5882,2.5888,2.5888,2.5887,2.5896,2.5896,2.5896,0,0,2.5694,2.5707,2.5715,2.5728,2.5747,2.5761,2.5762,2.5784,2.5793,2.5805,2.5819,2.5828,2.5847,2.5859,2.5867,2.5865,2.5875,2.5869,2.5862,2.5867,2.5867,2.5866,2.5866,2.5866,2.5869,2.5869,2.5869,0,2.5681,2.5698,2.5717,2.5727,2.5737,2.5755,2.5763,2.5774,2.5796,2.5802,2.5806,2.5832,2.5844,2.5857,2.5857,2.5863,2.5866,2.5866,2.5866,2.5865,2.5865,2.5865,2.5865,2.5868,2.5868,2.5868,2.5868,0,2.5682,2.5694,2.5698,2.572,2.573,2.5739,2.5759,2.5767,2.5778,2.5791,2.5803,2.5819,2.5835,2.5839,2.5848,2.5854,2.5856,2.5862,2.5869,2.5863,2.5864,2.5864,2.5867,2.5867,2.5867,2.5867,0,0,2.5658,2.5693,2.5694,2.5705,2.5729,2.5738,2.5748,2.5765,2.5772,2.5787,2.5796,2.5813,2.582,2.583,2.5841,2.5846,2.5844,2.5852,2.5853,2.5851,2.5852,2.5847,2.5847,2.5851,2.5851,2.5851,2.5851,0,2.5653,2.5673,2.5691,2.5704,2.5716,2.5735,2.5744,2.5759,2.5772,2.5783,2.5797,2.5809,2.5817,2.5823,2.5829,2.5843,2.5845,2.5844,2.5859,2.586,2.5855,2.5847,2.5841,2.5841,2.5851,2.5851,2.5851,0,2.5649,2.5665,2.568,2.5705,2.5711,2.5718,2.5737,2.5747,2.5766,2.5775,2.5787,2.5799,2.5811,2.5816,2.5833,2.5831,2.5839,2.5847,2.5847,2.5849,2.5855,2.5849,2.5841,2.584,2.5852,2.5852,2.5852,0,2.5631,2.5656,2.5669,2.5678,2.5707,2.5712,2.5724,2.5743,2.5753,2.5768,2.5775,2.5791,2.5799,2.5811,2.5828,2.5831,2.5843,2.585,2.5851,2.585,2.5852,2.5852,2.5845,2.5856,2.5856,2.5856,2.5856,0,2.5623,2.5632,2.5662,2.567,2.568,2.5701,2.5711,2.5724,2.5741,2.5751,2.5768,2.5777,2.5799,2.5811,2.5824,2.5836,2.5839,2.5847,2.585,2.5845,2.5844,2.585,2.5851,2.5856,2.5856,2.5856,2.5856,0,2.5604,2.5625,2.564,2.5667,2.5674,2.5681,2.5704,2.5712,2.5727,2.574,2.5744,2.5767,2.5782,2.58,2.582,2.5829,2.584,2.5845,2.5834,2.5836,2.5837,2.5837,2.5833,2.5834,2.5845,2.5845,2.5845,0,2.5598,2.5606,2.5634,2.5644,2.5656,2.567,2.5681,2.5702,2.5712,2.5735,2.574,2.5757,2.5772,2.5795,2.5813,2.5829,2.5834,2.5832,2.5837,2.5832,2.5835,2.5834,2.5836,2.5831,2.5831,2.583,2.583,0,2.5585,2.5596,2.5611,2.5631,2.5644,2.566,2.5677,2.5683,2.5707,2.5718,2.5735,2.5746,2.5769,2.5785,2.5804,2.5816,2.5827,2.5829,2.583,2.5825,2.5819,2.5823,2.5832,2.5829,2.5829,2.5829,2.5829,2.5829,2.5573,2.5581,2.5604,2.5621,2.5636,2.5652,2.5662,2.5678,2.5693,2.5714,2.5725,2.5742,2.5761,2.5788,2.58,2.5813,2.5816,2.5818,2.5818,2.5818,2.5817,2.5817,2.5816,2.5816,2.5816,2.5816,2.5816,0,2.5562,2.5578,2.5593,2.5618,2.5631,2.5643,2.5662,2.5673,2.5688,2.5705,2.572,2.574,2.5757,2.5776,2.5794,2.5801,2.5807,2.5805,2.5805,2.5807,2.5812,2.581,2.58,2.58,2.58,2.58,2.58,2.58,2.5557,2.5573,2.5586,2.5609,2.5625,2.5642,2.5653,2.5667,2.5682,2.5704,2.5719,2.5732,2.5751,2.5771,2.5786,2.5792,2.5798,2.5794,2.5801,2.5806,2.5807,2.5808,2.5806,2.5795,2.5795,2.5795,2.5795,2.5795]}]]